Weather History for KACK - October, 2014

Change the Weather History Date:

Sunday, October 12, 2014

  Actual Average Record
Temperature  
Mean Temperature 51 °F -  
Max Temperature 59 °F 62 °F 74 °F (1955)
Min Temperature 42 °F 46 °F 32 °F (1976)
Degree Days  
Heating Degree Days 14    
Growing Degree Days 1 (Base 50)    
Moisture  
Dew Point 42 °F    
Average Humidity 72    
Maximum Humidity 92    
Minimum Humidity 49    
Precipitation  
Precipitation 0.00 in - - ()
Sea Level Pressure  
Sea Level Pressure 30.22 in    
Wind  
Wind Speed 9 mph (NNE)    
Max Wind Speed 16 mph    
Max Gust Speed 24 mph    
Visibility 10 miles    
Events      
Averages and records for this station are not official NWS values.
T = Trace of Precipitation, MM = Missing Value Source: NWS Daily Summary

Daily Weather History Graph

Daily Weather History Graph

Search for Another Location

Airport or City:

Trip Planner

Search our weather history database for the weather conditions in past years. The results will help you decide how hot, cold, wet, or windy it might be!

Date:

Astronomy

Oct. 12, 2014 Rise Set
Actual Time 6:48 AM EDT 6:04 PM EDT
Civil Twilight 6:20 AM EDT 6:31 PM EDT
Nautical Twilight 5:48 AM EDT 7:03 PM EDT
Astronomical Twilight 5:16 AM EDT 7:35 PM EDT
Moon 9:17 PM EDT (10/12) 11:09 AM EDT (10/12)
Length of Visible Light 12h 10m
Length of Day
11h 15m
Waning Gibbous, 79% of the Moon is Illuminated
Oct 12
Waning Gibbous
Oct 15
Last Quarter
Oct 23
New
Oct 30
First Quarter
Nov 6
Full

Hourly Weather History & Observations

Time (EDT) Temp. Windchill Dew Point Humidity Pressure Visibility Wind Dir Wind Speed Gust Speed Precip Events Conditions
12:53 AM 50.0 °F - 46.0 °F 86% 30.11 in 10.0 mi North 9.2 mph - N/A   Clear
1:53 AM 50.0 °F - 45.0 °F 83% 30.11 in 10.0 mi North 6.9 mph - N/A   Clear
2:53 AM 51.1 °F - 45.0 °F 80% 30.12 in 10.0 mi NNW 8.1 mph - N/A   Clear
3:53 AM 50.0 °F - 45.0 °F 83% 30.13 in 10.0 mi North 6.9 mph - N/A   Clear
4:53 AM 48.9 °F - 45.0 °F 86% 30.14 in 10.0 mi North 6.9 mph - N/A   Clear
5:53 AM 50.0 °F - 45.0 °F 83% 30.14 in 10.0 mi North 6.9 mph - N/A   Partly Cloudy
6:53 AM 50.0 °F - 46.0 °F 86% 30.16 in 10.0 mi North 5.8 mph - N/A   Clear
7:53 AM 54.0 °F - 45.0 °F 72% 30.19 in 10.0 mi North 10.4 mph - N/A   Clear
8:53 AM 55.9 °F - 44.1 °F 64% 30.21 in 10.0 mi North 13.8 mph - N/A   Clear
9:53 AM 57.0 °F - 43.0 °F 59% 30.22 in 10.0 mi North 16.1 mph - N/A   Clear
10:53 AM 59.0 °F - 42.1 °F 53% 30.23 in 10.0 mi North 15.0 mph 24.2 mph N/A   Scattered Clouds
11:53 AM 59.0 °F - 39.9 °F 49% 30.24 in 10.0 mi NNE 16.1 mph - N/A   Clear
12:53 PM 59.0 °F - 41.0 °F 51% 30.23 in 10.0 mi NNE 16.1 mph - N/A   Clear
1:53 PM 57.9 °F - 39.9 °F 51% 30.22 in 10.0 mi NNE 13.8 mph - N/A   Clear
2:53 PM 57.9 °F - 41.0 °F 53% 30.23 in 10.0 mi NNE 13.8 mph - N/A   Clear
3:53 PM 57.0 °F - 39.9 °F 53% 30.25 in 10.0 mi NNE 11.5 mph - N/A   Partly Cloudy
4:53 PM 55.9 °F - 39.0 °F 53% 30.27 in 10.0 mi NNE 8.1 mph - N/A   Clear
5:53 PM 53.1 °F - 42.1 °F 66% 30.28 in 10.0 mi ENE 3.5 mph - N/A   Clear
6:53 PM 46.9 °F - 42.1 °F 83% 30.30 in 10.0 mi ENE 3.5 mph - N/A   Clear
7:53 PM 44.1 °F 42.5 °F 39.9 °F 85% 30.31 in 10.0 mi East 3.5 mph - N/A   Clear
8:53 PM 48.0 °F - 42.1 °F 80% 30.32 in 10.0 mi Calm Calm - N/A   Clear
9:53 PM 43.0 °F - 39.9 °F 89% 30.32 in 10.0 mi Calm Calm - N/A   Clear
10:53 PM 43.0 °F - 39.0 °F 86% 30.32 in 10.0 mi Calm Calm - N/A   Clear
11:53 PM 42.1 °F - 39.9 °F 92% 30.33 in 10.0 mi Calm Calm - N/A   Clear